Adak, AK

2:50 AM HDT on April 19, 2018 (GMT -0900)
Adak

Weather History for PADK - April, 2014

Change the Weather History Date:

Tuesday, April 8, 2014

  Actual Average Record
Temperature  
Mean Temperature 38 °F -  
Max Temperature 44 °F 41 °F 51 °F (1967)
Min Temperature 33 °F 32 °F 23 °F (1976)
Degree Days  
Heating Degree Days 26    
Moisture  
Dew Point 33 °F    
Average Humidity 78    
Maximum Humidity 93    
Minimum Humidity 54    
Precipitation  
Precipitation 0.16 in - - ()
Sea Level Pressure  
Sea Level Pressure 29.35 in    
Wind  
Wind Speed 17 mph (SSW)    
Max Wind Speed 33 mph    
Max Gust Speed 40 mph    
Visibility 10 miles    
Events      
Averages and records for this station are not official NWS values.
T = Trace of Precipitation, MM = Missing Value Source: NWS Daily Summary

Daily Weather History Graph

Daily Weather History Graph

Search for Another Location

Airport or City:

Astronomy

Apr. 08, 2014 Rise Set
Actual Time 8:04 AM HDT 9:32 PM HDT
Civil Twilight 7:30 AM HDT 10:07 PM HDT
Nautical Twilight 6:47 AM HDT 10:50 PM HDT
Astronomical Twilight 6:00 AM HDT 11:38 PM HDT
Moon 2:59 PM HDT (4/8) 5:08 AM HDT (4/8)
Length of Visible Light 14h 37m
Length of Day
13h 27m
Waxing Gibbous, 64% of the Moon is Illuminated
Apr 8
Waxing Gibbous
Apr 14
Full
Apr 21
Last Quarter
Apr 28
New
May 6
First Quarter

Hourly Weather History & Observations

Time (HDT) Temp. Windchill Dew Point Humidity Pressure Visibility Wind Dir Wind Speed Gust Speed Precip Events Conditions
12:16 AM 37.4 °F 24.4 °F 32.0 °F 81% 29.23 in 10.0 mi WSW 33.4 mph 40.3 mph N/A   Overcast
12:36 AM 37.4 °F 25.6 °F 32.0 °F 81% 29.24 in 10.0 mi WSW 26.5 mph 35.7 mph N/A   Overcast
1:16 AM 37.4 °F 27.2 °F 32.0 °F 81% 29.27 in 10.0 mi WSW 19.6 mph 28.8 mph N/A   Overcast
1:36 AM 37.4 °F 27.8 °F 30.2 °F 75% 29.28 in 10.0 mi West 17.3 mph 24.2 mph N/A   Overcast
1:56 AM 37.4 °F 26.9 °F 32.0 °F 81% 29.28 in 10.0 mi WSW 20.7 mph 24.2 mph N/A   Overcast
2:16 AM 37.4 °F 27.8 °F 32.0 °F 81% 29.29 in 10.0 mi WSW 17.3 mph 25.3 mph N/A   Overcast
2:36 AM 37.4 °F 27.8 °F 32.0 °F 81% 29.29 in 10.0 mi WSW 17.3 mph 27.6 mph N/A   Overcast
2:56 AM 37.4 °F 28.9 °F 30.2 °F 75% 29.30 in 10.0 mi WSW 13.8 mph - N/A   Overcast
3:16 AM 35.6 °F 26.2 °F 32.0 °F 87% 29.30 in 10.0 mi WSW 15.0 mph - N/A   Overcast
3:36 AM 37.4 °F 27.2 °F 32.0 °F 81% 29.31 in 10.0 mi WSW 19.6 mph 27.6 mph N/A   Mostly Cloudy
3:56 AM 37.4 °F 26.6 °F 30.2 °F 75% 29.31 in 10.0 mi WSW 21.9 mph 27.6 mph N/A   Partly Cloudy
4:16 AM 35.6 °F 24.8 °F 30.2 °F 81% 29.32 in 10.0 mi WSW 19.6 mph - N/A   Clear
4:36 AM 37.4 °F 28.2 °F 30.2 °F 75% 29.33 in 10.0 mi WSW 16.1 mph - N/A   Scattered Clouds
4:56 AM 35.6 °F 27.1 °F 30.2 °F 81% 29.34 in 10.0 mi WSW 12.7 mph - N/A   Partly Cloudy
5:16 AM 35.6 °F 29.2 °F 30.2 °F 81% 29.34 in 10.0 mi West 8.1 mph - N/A   Mostly Cloudy
5:36 AM 37.4 °F 30.3 °F 32.0 °F 81% 29.34 in 10.0 mi WSW 10.4 mph - N/A   Mostly Cloudy
5:56 AM 35.6 °F 26.6 °F 30.2 °F 81% 29.34 in 10.0 mi SW 13.8 mph - N/A   Scattered Clouds
6:16 AM 35.6 °F 27.5 °F 30.2 °F 81% 29.35 in 10.0 mi SW 11.5 mph - N/A   Mostly Cloudy
6:36 AM 35.6 °F 30.7 °F 30.2 °F 81% 29.35 in 10.0 mi WSW 5.8 mph - N/A   Overcast
6:56 AM 35.6 °F 27.1 °F 32.0 °F 87% 29.36 in 3.0 mi SW 12.7 mph - 0.01 in   Overcast
7:16 AM 35.6 °F 27.5 °F 33.8 °F 93% 29.35 in 10.0 mi WSW 11.5 mph - N/A   Mostly Cloudy
7:36 AM 35.6 °F 27.1 °F 32.0 °F 87% 29.36 in 10.0 mi West 12.7 mph - N/A   Partly Cloudy
7:56 AM 35.6 °F 28.0 °F 30.2 °F 81% 29.36 in 10.0 mi WSW 10.4 mph - N/A   Scattered Clouds
8:16 AM 33.8 °F 25.8 °F 30.2 °F 87% 29.36 in 10.0 mi SW 10.4 mph - N/A   Partly Cloudy
8:36 AM 35.6 °F 29.9 °F 32.0 °F 87% 29.37 in 10.0 mi WSW 6.9 mph - N/A   Clear
8:56 AM 35.6 °F - 32.0 °F 87% 29.38 in 10.0 mi Calm Calm - N/A   Scattered Clouds
9:16 AM 37.4 °F 31.4 °F 33.8 °F 87% 29.38 in 10.0 mi SW 8.1 mph - N/A   Mostly Cloudy
9:36 AM 37.4 °F 29.3 °F 33.8 °F 87% 29.39 in 10.0 mi SW 12.7 mph - N/A   Overcast
9:56 AM 37.4 °F 29.3 °F 33.8 °F 87% 29.39 in 10.0 mi SW 12.7 mph - N/A   Scattered Clouds
10:16 AM 39.2 °F 33.6 °F 35.6 °F 87% 29.40 in 10.0 mi SW 8.1 mph - N/A   Mostly Cloudy
10:36 AM 39.2 °F 32.5 °F 33.8 °F 81% 29.41 in 10.0 mi WSW 10.4 mph - N/A   Overcast
10:56 AM 39.2 °F 32.0 °F 33.8 °F 81% 29.41 in 10.0 mi WSW 11.5 mph - N/A   Overcast
11:16 AM 41.0 °F 33.5 °F 33.8 °F 76% 29.41 in 10.0 mi WSW 13.8 mph - N/A   Mostly Cloudy
11:36 AM 41.0 °F 34.3 °F 32.0 °F 70% 29.41 in 10.0 mi WSW 11.5 mph - N/A   Mostly Cloudy
11:56 AM 42.8 °F 37.0 °F 33.8 °F 70% 29.42 in 10.0 mi WSW 10.4 mph - N/A   Overcast
12:16 PM 42.8 °F 37.0 °F 33.8 °F 70% 29.42 in 10.0 mi WSW 10.4 mph 18.4 mph N/A   Overcast
12:36 PM 42.8 °F 37.5 °F 32.0 °F 66% 29.41 in 10.0 mi SSW 9.2 mph - N/A   Mostly Cloudy
12:56 PM 42.8 °F 36.6 °F 33.8 °F 70% 29.41 in 10.0 mi SSW 11.5 mph - N/A   Mostly Cloudy
1:16 PM 44.6 °F 38.8 °F 33.8 °F 66% 29.41 in 10.0 mi South 11.5 mph 20.7 mph N/A   Overcast
1:36 PM 44.6 °F 37.4 °F 33.8 °F 66% 29.41 in 10.0 mi South 16.1 mph - N/A   Scattered Clouds
1:56 PM 42.8 °F 35.8 °F 32.0 °F 66% 29.41 in 10.0 mi South 13.8 mph 18.4 mph N/A   Partly Cloudy
2:16 PM 42.8 °F 37.5 °F 32.0 °F 66% 29.40 in 10.0 mi SSE 9.2 mph - N/A   Scattered Clouds
2:36 PM 44.6 °F 38.4 °F 33.8 °F 66% 29.40 in 10.0 mi South 12.7 mph 21.9 mph N/A   Mostly Cloudy
2:56 PM 44.6 °F 38.4 °F 33.8 °F 66% 29.40 in 10.0 mi SSE 12.7 mph 19.6 mph N/A   Mostly Cloudy
3:16 PM 44.6 °F 36.4 °F 33.8 °F 66% 29.41 in 10.0 mi SSW 20.7 mph 27.6 mph N/A   Scattered Clouds
3:36 PM 44.6 °F 37.2 °F 33.8 °F 66% 29.41 in 10.0 mi SSW 17.3 mph 20.7 mph N/A   Mostly Cloudy
3:56 PM 44.6 °F 38.4 °F 32.0 °F 61% 29.40 in 10.0 mi South 12.7 mph 19.6 mph N/A   Mostly Cloudy
4:16 PM 44.6 °F 38.4 °F 33.8 °F 66% 29.38 in 10.0 mi SSE 12.7 mph 17.3 mph N/A   Partly Cloudy
4:36 PM 44.6 °F 37.4 °F 33.8 °F 66% 29.37 in 10.0 mi SSE 16.1 mph - N/A   Clear
4:56 PM 44.6 °F 36.9 °F 33.8 °F 66% 29.36 in 10.0 mi SSE 18.4 mph - N/A   Partly Cloudy
5:16 PM 42.8 °F 34.5 °F 33.8 °F 70% 29.36 in 10.0 mi SSE 18.4 mph - N/A   Partly Cloudy
5:36 PM 42.8 °F 35.8 °F 33.8 °F 70% 29.36 in 10.0 mi South 13.8 mph - N/A   Mostly Cloudy
5:56 PM 42.8 °F 34.3 °F 35.6 °F 76% 29.36 in 10.0 mi SSE 19.6 mph 24.2 mph N/A   Overcast
6:16 PM 42.8 °F 35.4 °F 35.6 °F 76% 29.36 in 10.0 mi South 15.0 mph - N/A   Mostly Cloudy
6:36 PM 41.0 °F 32.5 °F 37.4 °F 87% 29.35 in 5.0 mi South 17.3 mph - N/A   Overcast
6:56 PM 41.0 °F 33.9 °F 35.6 °F 81% 29.34 in 9.0 mi SSE 12.7 mph - 0.01 in   Overcast
7:16 PM 41.0 °F 31.6 °F 35.6 °F 81% 29.33 in 8.0 mi SSE 20.7 mph 25.3 mph N/A   Overcast
7:36 PM 41.0 °F 34.3 °F 35.6 °F 81% 29.33 in 8.0 mi South 11.5 mph - N/A   Overcast
7:56 PM 41.0 °F 33.1 °F 35.6 °F 81% 29.32 in 7.0 mi SSE 15.0 mph 23.0 mph 0.01 in   Overcast
8:16 PM 41.0 °F 33.5 °F 35.6 °F 81% 29.32 in 5.0 mi South 13.8 mph 20.7 mph N/A   Overcast
8:36 PM 39.2 °F 29.8 °F 35.6 °F 87% 29.32 in 8.0 mi South 18.4 mph 23.0 mph 0.01 in   Overcast
8:56 PM 39.2 °F 32.0 °F 35.6 °F 87% 29.31 in 10.0 mi South 11.5 mph - 0.02 in   Overcast
9:16 PM 39.2 °F 30.8 °F 35.6 °F 87% 29.31 in 8.0 mi South 15.0 mph 20.7 mph 0.01 in   Overcast
9:36 PM 39.2 °F 32.0 °F 35.6 °F 87% 29.31 in 9.0 mi South 11.5 mph - 0.02 in   Overcast
9:56 PM 39.2 °F 32.5 °F 35.6 °F 87% 29.31 in 9.0 mi SSW 10.4 mph 17.3 mph 0.03 in   Overcast
10:16 PM 39.2 °F 31.6 °F 35.6 °F 87% 29.32 in 10.0 mi South 12.7 mph 21.9 mph 0.01 in   Overcast
10:36 PM 39.2 °F 31.6 °F 33.8 °F 81% 29.32 in 10.0 mi South 12.7 mph - 0.02 in   Overcast
10:56 PM 37.4 °F 27.8 °F 33.8 °F 87% 29.31 in 10.0 mi South 17.3 mph 23.0 mph 0.02 in   Overcast
11:16 PM 37.4 °F 27.8 °F 33.8 °F 87% 29.31 in 10.0 mi South 17.3 mph 24.2 mph N/A   Overcast
11:36 PM 37.4 °F 28.2 °F 35.6 °F 93% 29.31 in 10.0 mi South 16.1 mph - N/A   Overcast
11:56 PM 39.2 °F 32.0 °F 35.6 °F 87% 29.31 in 10.0 mi South 11.5 mph - N/A   Overcast